Meteo pe oră la Abasolo

Astăzi, 5 August, Joi

Timp Temperatura Precipitaţii Vânt Presiune Umiditate
00:00 +18°C° 1.9 mm 1 m/s 622 mmHg 98%
01:00 +18°C° 1.9 mm 1 m/s 622 mmHg 98%
02:00 +16°C° 1.9 mm 1 m/s 622 mmHg 98%
03:00 +15°C° 0.5 mm 0 m/s 622 mmHg 98%
04:00 +15°C° 0.5 mm 0 m/s 622 mmHg 98%
05:00 +15°C° 0.5 mm 0 m/s 622 mmHg 97%
06:00 +16°C° 0 mm 0 m/s 622 mmHg 94%
07:00 +17°C° 0 mm 0 m/s 623 mmHg 90%
08:00 +18°C° 0 mm 0 m/s 624 mmHg 87%
09:00 +21°C° 0.4 mm 1 m/s 624 mmHg 82%
10:00 +22°C° 0.4 mm 1 m/s 624 mmHg 77%
11:00 +24°C° 0.4 mm 2 m/s 624 mmHg 72%
12:00 +24°C° 0.6 mm 1 m/s 623 mmHg 71%
13:00 +24°C° 0.6 mm 1 m/s 623 mmHg 70%
14:00 +25°C° 0.6 mm 1 m/s 622 mmHg 68%
15:00 +24°C° 1.1 mm 1 m/s 622 mmHg 73%
16:00 +24°C° 1.1 mm 1 m/s 622 mmHg 77%
17:00 +21°C° 1.1 mm 0 m/s 621 mmHg 81%
18:00 +22°C° 0.7 mm 1 m/s 622 mmHg 83%
19:00 +21°C° 0.7 mm 1 m/s 622 mmHg 86%
20:00 +20°C° 0.7 mm 1 m/s 622 mmHg 88%
21:00 +19°C° 0.3 mm 1 m/s 622 mmHg 89%
22:00 +19°C° 0.3 mm 1 m/s 622 mmHg 91%
23:00 +17°C° 0.3 mm 0 m/s 622 mmHg 92%

Mâine, 6 August, Vineri

Timp Temperatura Precipitaţii Vânt Presiune Umiditate
00:00 +18°C° 0.2 mm 1 m/s 622 mmHg 93%
01:00 +18°C° 0.2 mm 1 m/s 622 mmHg 94%
02:00 +18°C° 0.2 mm 1 m/s 622 mmHg 95%
03:00 +16°C° 0 mm 1 m/s 622 mmHg 95%
04:00 +16°C° 0 mm 1 m/s 622 mmHg 95%
05:00 +16°C° 0 mm 1 m/s 622 mmHg 96%
06:00 +18°C° 0 mm 1 m/s 622 mmHg 92%
07:00 +19°C° 0 mm 1 m/s 623 mmHg 89%
08:00 +20°C° 0 mm 1 m/s 624 mmHg 85%
09:00 +22°C° 0 mm 1 m/s 624 mmHg 76%
10:00 +24°C° 0 mm 2 m/s 624 mmHg 67%
11:00 +26°C° 0 mm 2 m/s 624 mmHg 58%
12:00 +26°C° 0.5 mm 2 m/s 623 mmHg 60%
13:00 +26°C° 0.5 mm 2 m/s 623 mmHg 61%
14:00 +26°C° 0.5 mm 2 m/s 622 mmHg 63%
15:00 +25°C° 0.9 mm 2 m/s 622 mmHg 67%
16:00 +25°C° 0.9 mm 1 m/s 622 mmHg 70%
17:00 +24°C° 0.9 mm 1 m/s 621 mmHg 73%
18:00 +23°C° 0.7 mm 1 m/s 621 mmHg 78%
19:00 +21°C° 0.7 mm 1 m/s 621 mmHg 83%
20:00 +19°C° 0.7 mm 1 m/s 621 mmHg 88%
21:00 +19°C° 0.1 mm 1 m/s 621 mmHg 89%
22:00 +18°C° 0.1 mm 1 m/s 622 mmHg 90%
23:00 +16°C° 0.1 mm 0 m/s 622 mmHg 91%

Poimâine, 7 August, Sâmbătă

Timp Temperatura Precipitaţii Vânt Presiune Umiditate
00:00 +16°C° 0 mm 0 m/s 621 mmHg 92%
01:00 +16°C° 0 mm 0 m/s 621 mmHg 93%
02:00 +15°C° 0 mm 0 m/s 621 mmHg 93%
03:00 +15°C° 0 mm 0 m/s 621 mmHg 94%
04:00 +15°C° 0 mm 0 m/s 621 mmHg 95%
05:00 +15°C° 0 mm 0 m/s 621 mmHg 95%
06:00 +18°C° 0 mm 1 m/s 622 mmHg 90%
07:00 +19°C° 0 mm 1 m/s 622 mmHg 86%
08:00 +21°C° 0 mm 1 m/s 623 mmHg 81%
09:00 +23°C° 0 mm 1 m/s 623 mmHg 72%
10:00 +25°C° 0 mm 1 m/s 624 mmHg 64%
11:00 +26°C° 0 mm 1 m/s 624 mmHg 55%
12:00 +27°C° 0.2 mm 1 m/s 623 mmHg 53%
13:00 +28°C° 0.2 mm 1 m/s 623 mmHg 50%
14:00 +28°C° 0.2 mm 1 m/s 622 mmHg 48%
15:00 +28°C° 0 mm 1 m/s 622 mmHg 52%
16:00 +27°C° 0 mm 1 m/s 621 mmHg 56%
17:00 +26°C° 0 mm 1 m/s 621 mmHg 60%
18:00 +24°C° 0.2 mm 1 m/s 621 mmHg 66%
19:00 +22°C° 0.2 mm 1 m/s 621 mmHg 72%
20:00 +21°C° 0.2 mm 1 m/s 621 mmHg 77%
21:00 +20°C° 1.3 mm 1 m/s 621 mmHg 83%
22:00 +19°C° 1.3 mm 1 m/s 621 mmHg 88%
23:00 +16°C° 1.3 mm 0 m/s 621 mmHg 93%

8 August, Duminică

Timp Temperatura Precipitaţii Vânt Presiune Umiditate
00:00 +15°C° 0.3 mm 0 m/s 621 mmHg 94%
01:00 +15°C° 0.3 mm 0 m/s 621 mmHg 95%
02:00 +14°C° 0.3 mm 0 m/s 620 mmHg 96%
03:00 +14°C° 0 mm 0 m/s 620 mmHg 96%
04:00 +14°C° 0 mm 0 m/s 620 mmHg 96%
05:00 +15°C° 0 mm 1 m/s 620 mmHg 96%
06:00 +16°C° 0 mm 1 m/s 621 mmHg 92%
07:00 +19°C° 0 mm 1 m/s 622 mmHg 87%
08:00 +20°C° 0 mm 1 m/s 623 mmHg 83%
09:00 +22°C° 0 mm 1 m/s 623 mmHg 73%
10:00 +24°C° 0 mm 2 m/s 623 mmHg 63%
11:00 +26°C° 0 mm 2 m/s 623 mmHg 54%
12:00 +27°C° 0.1 mm 2 m/s 623 mmHg 51%
13:00 +28°C° 0.1 mm 2 m/s 622 mmHg 48%
14:00 +29°C° 0.1 mm 2 m/s 622 mmHg 45%
15:00 +27°C° 0.3 mm 2 m/s 621 mmHg 53%
16:00 +26°C° 0.3 mm 2 m/s 621 mmHg 61%
17:00 +24°C° 0.3 mm 2 m/s 620 mmHg 69%
18:00 +21°C° 0.5 mm 2 m/s 620 mmHg 76%
19:00 +20°C° 0.5 mm 1 m/s 620 mmHg 84%
20:00 +19°C° 0.5 mm 1 m/s 620 mmHg 91%
21:00 +18°C° 0.8 mm 1 m/s 621 mmHg 92%
22:00 +16°C° 0.8 mm 0 m/s 621 mmHg 94%
23:00 +15°C° 0.8 mm 0 m/s 621 mmHg 95%

9 August, Luni

Timp Temperatura Precipitaţii Vânt Presiune Umiditate
00:00 +15°C° 0.1 mm 0 m/s 621 mmHg 95%
01:00 +15°C° 0.1 mm 0 m/s 621 mmHg 95%
02:00 +15°C° 0.1 mm 1 m/s 620 mmHg 95%
03:00 +15°C° 0 mm 1 m/s 620 mmHg 96%
04:00 +15°C° 0 mm 1 m/s 620 mmHg 96%
05:00 +15°C° 0 mm 1 m/s 621 mmHg 96%
06:00 +16°C° 0 mm 1 m/s 621 mmHg 92%
07:00 +19°C° 0 mm 1 m/s 622 mmHg 88%
08:00 +19°C° 0 mm 2 m/s 622 mmHg 84%
09:00 +21°C° 0 mm 2 m/s 623 mmHg 75%
10:00 +24°C° 0 mm 2 m/s 623 mmHg 66%
11:00 +26°C° 0 mm 2 m/s 623 mmHg 57%
12:00 +27°C° 0.2 mm 2 m/s 623 mmHg 53%
13:00 +27°C° 0.2 mm 2 m/s 622 mmHg 50%
14:00 +28°C° 0.2 mm 2 m/s 622 mmHg 46%
15:00 +27°C° 0 mm 2 m/s 621 mmHg 51%
16:00 +27°C° 0 mm 2 m/s 621 mmHg 55%
17:00 +26°C° 0 mm 2 m/s 620 mmHg 60%
18:00 +24°C° 0 mm 2 m/s 620 mmHg 66%
19:00 +22°C° 0 mm 1 m/s 621 mmHg 72%
20:00 +20°C° 0 mm 1 m/s 621 mmHg 78%
21:00 +19°C° 0.3 mm 1 m/s 621 mmHg 82%
22:00 +18°C° 0.3 mm 1 m/s 621 mmHg 86%
23:00 +16°C° 0.3 mm 1 m/s 621 mmHg 90%

10 August, Marţi

Timp Temperatura Precipitaţii Vânt Presiune Umiditate
00:00 +16°C° 0 mm 1 m/s 621 mmHg 92%
01:00 +15°C° 0 mm 1 m/s 621 mmHg 93%
02:00 +15°C° 0 mm 1 m/s 621 mmHg 95%
03:00 +15°C° 0 mm 1 m/s 621 mmHg 95%
04:00 +15°C° 0 mm 1 m/s 621 mmHg 95%
05:00 +15°C° 0 mm 1 m/s 621 mmHg 95%
06:00 +18°C° 0 mm 1 m/s 622 mmHg 90%
07:00 +19°C° 0 mm 1 m/s 623 mmHg 84%
08:00 +20°C° 0 mm 2 m/s 623 mmHg 79%
09:00 +23°C° 0.1 mm 2 m/s 623 mmHg 72%
10:00 +24°C° 0.1 mm 2 m/s 624 mmHg 64%
11:00 +26°C° 0.1 mm 2 m/s 624 mmHg 57%
12:00 +27°C° 0.4 mm 2 m/s 623 mmHg 55%
13:00 +27°C° 0.4 mm 1 m/s 623 mmHg 54%
14:00 +28°C° 0.4 mm 1 m/s 622 mmHg 52%
15:00 +27°C° 0.3 mm 1 m/s 622 mmHg 58%
16:00 +26°C° 0.3 mm 1 m/s 621 mmHg 64%
17:00 +22°C° 0.3 mm 0 m/s 621 mmHg 70%
18:00 +21°C° 1 mm 0 m/s 621 mmHg 77%
19:00 +19°C° 1 mm 0 m/s 621 mmHg 84%
20:00 +17°C° 1 mm 0 m/s 621 mmHg 91%
21:00 +18°C° 0.9 mm 1 m/s 622 mmHg 92%
22:00 +18°C° 0.9 mm 1 m/s 622 mmHg 93%
23:00 +16°C° 0.9 mm 1 m/s 622 mmHg 94%
Arată mai mult

Formular de consimțământ

Meteoprog și furnizorii noștri de servicii pot stoca și accesa date personale, precum cookies, identificatori de dispozitiv sau alte tehnologii similare pe dispozitivul dumneavoastră și procesa astfel de date pentru a personaliza conținutul și reclamele, dar și pentru a oferi caracteristici de social media și pentru a analiza traficul.

  • Stocarea și/sau accesarea informațiilor pe dispozitivul dumneavoastră

    Cookies, identificatori de dispozitiv sau alte informații pot fi stocate sau accesate pe dispozitiv în scopurile indicate mai sus.

  • Reclame și conținut personalizat, evaluarea reclamelor și a conținutului, informații despre audiențe și dezvoltarea produselor

    Reclamele și conținutul pot fi personalizate pe baza unui profil. Pot fi adăugate date suplimentare pentru a personaliza mai bine reclamele și conținutul. Performanța reclamelor și conținutului poate fi măsurată. Pot fi obținute informații despre utilizatorii care au văzut reclamele și conținutul. Aceste date pot fi utilizate pentru a dezvolta sau îmbunătăți experiența utilizatorilor, sistemele și software-ul.

Dând clic pe ‘Sunt de acord’, permiteți utilizarea cookie-urilor menționate, a identificatorilor de dispozitiv, balizelor web sau altor tehnologii similare. Setările pot fi modificate din browser-ul dispozitivului dumneavoastră.

În anumite scopuri, interesele legitime pot prima asupra consimțământului. Puteți citi mai multe informații în acest sens în Politica privind Confidențialitatea Datelor și Cookie.